Regional Weather Roundup
Issued by NWS

Home | Current Version | Previous Version | Text Only | Print | Product List | Glossary On
Versions: 1 2 3 4 5 6 7 8 9 10 11 12 13 14 15 16 17 18 19 20 21 22 23 24 25 26 27 28 29 30 31 32 33 34 35 36 37 38 39 40 41 42 43 44 45 46 47 48 49 50
000
ASUS42 KTBW 211417
RWRFL
FLORIDA REGIONAL WEATHER ROUNDUP
NATIONAL WEATHER SERVICE TAMPA BAY RUSKIN FL
1000 AM EDT THU SEP 21 2017

NOTE: "FAIR" INDICATES FEW OR NO CLOUDS BELOW 12,000 FEET WITH NO
SIGNIFICANT WEATHER AND/OR OBSTRUCTIONS TO VISIBILITY.

FLZ001>010-012>015-112-114-115-211500-
PANHANDLE FLORIDA

CITY           SKY/WX    TMP DP  RH WIND       PRES   REMARKS
PENSACOLA      SUNNY     83  72  69 N6        30.04R
PENSACOLA NAS  PTSUNNY   81  71  71 N7        30.03R
MILTON NAS     MOSUNNY   79  73  82 NE3       30.04S
CRESTVIEW      SUNNY     82  73  74 E6        30.05S
DUKE FIELD     MOSUNNY   80  72  78 N6        30.03S
VALPARAISO     PTSUNNY   80  72  76 NE6       30.03R
MARY ESTHER    SUNNY     79  74  84 NE6       30.02R
PANAMA CITY    FAIR      80  73  79 VRB3      30.03R
TYNDALL AFB    PTSUNNY   81  71  72 E5        30.04R
APALACHICOLA   MOSUNNY   82  78  88 E6        30.04R

STATION/POSITION SKY/WX   TEMP    WIND        PRES    WAVE   SWELL
                          AIR SEA DIR/SP/G            HT/PER HT/PER
                          (F)     (DEG/KT/KT) (MB)    (FT/S) (FT/S)
30.1N   87.6W              80 83   30/  6/  8 1016.7R   1
29.2N   88.2W              83 83   30/  8/ 10 1017.1
28.8N   86.0W              82 83   50/  8/ 10 1016.5R   1
PANAMA CITY BEAC           79      50/  5/  8 1017.2R
TOWER C                    81                 1017.6R
28.5N   84.5W              82 82   80/  6/  6 1016.6R   1

$$
FLZ011-016>038-118-127-128-134-139-239-211500-
NORTH FLORIDA

CITY           SKY/WX    TMP DP  RH WIND       PRES   REMARKS
MARIANNA       MOSUNNY   78  73  84 NE5       30.03S
TALLAHASSEE    MOSUNNY   79  74  84 CALM      30.05R
LIVE OAK       SUNNY     81  81 100 CALM      30.05S
CROSS CITY     SUNNY     82  73  74 S3        30.08S
LAKE CITY      FAIR      79  72  78 CALM      30.05S
GAINESVILLE    MOSUNNY   79  73  82 CALM      30.07R
WILLISTON      SUNNY     82  73  74 CALM      30.04S
PALATKA        FAIR      81  77  89 NE5       30.05S
MAYPORT NAS    PTSUNNY   81  75  82 W5        30.05R
JACKSONVILLE   PTSUNNY   80  74  81 CALM      30.05R
JAX NAS        PTSUNNY   82  72  71 CALM      30.05S
JAX CECIL      SUNNY     81  73  78 CALM      30.05R
FERNANDINA BEA FAIR      81  72  74 MISG      30.04S
ST AUGUSTINE   PTSUNNY   80  74  81 N6        30.06R
PALM COAST     SUNNY     81 N/A N/A N5        30.04R

STATION/POSITION SKY/WX   TEMP    WIND        PRES    WAVE   SWELL
                          AIR SEA DIR/SP/G            HT/PER HT/PER
                          (F)     (DEG/KT/KT) (MB)    (FT/S) (FT/S)
SHELL POINT      NOT AVBL
KEATON BEACH               81      CALM  /  1 1016.8R
CEDAR KEY                  80     100/  2/  3 1017.4R
FERNANDINA                 81 82  330/  2/  3 1018.5R
30.7N   81.3W                 83                N/A     2/12   2/12
MAYPORT                    79 82  320/  5/  5 1018.0R
31.4N   80.9W              80 80  110/  2/  2 1017.4R   2/12   2/12
ST AUGUSTINE               79 82  350/  7/  7 1017.8R

$$
FLZ040-043>046-052-053-057-058-063-144-211500-
INTERIOR CENTRAL FLORIDA

CITY           SKY/WX    TMP DP  RH WIND       PRES   REMARKS
OCALA          MOSUNNY   80  72  76 E3        30.05R
THE VILLAGES     N/A     81  75  83 CALM      29.95R
LEESBURG       SUNNY     83  73  72 VRB3      30.05R
SANFORD        SUNNY     82  72  71 N7        30.03R
ORLANDO EXEC   SUNNY     82  72  71 N8        30.03R
ORLANDO INTL   MOSUNNY   82  72  71 NE7       30.02S
KISSIMMEE      SUNNY     83  71  67 NE7       30.03R
WINTER HAVEN   SUNNY     83  70  64 NE7       30.03S
LAKELAND       SUNNY     81  72  74 NE7       30.02S
SEBRING        FAIR      84  72  66 NE9       30.01R
OKEECHOBEE     SUNNY     82  73  74 NE7       29.99S

$$
FLZ041-047-054-059-064-141-147-211500-
EAST CENTRAL FLORIDA

CITY           SKY/WX    TMP DP  RH WIND       PRES   REMARKS
ORMOND BEACH   MOSUNNY   81  73  78 VRB5      30.03S
DAYTONA BEACH  MOSUNNY   82  73  74 N3        30.03S
DELAND         SUNNY     81  72  74 N7        30.03S
NEW SMYRNA BEA MOSUNNY   84  73  70 NE8       30.04R
JFK SPACE CTR  MOSUNNY   83  76  78 NE7       30.01R
TITUSVILLE     MOSUNNY   84  73  70 N6        30.02R
CAPE CANAVERAL MOSUNNY   85  72  64 NE9       30.00R HAZE
PATRICK AFB    MOSUNNY   83  73  71 NE9       30.00R
MELBOURNE      MOSUNNY   86  71  60 NE10      30.00R
VERO BEACH     MOSUNNY   84  73  69 NE10      30.00R
FT PIERCE      MOSUNNY   84  75  74 NE8       29.99R
STUART         RAIN      79  77  94 N7        30.00R

STATION/POSITION SKY/WX   TEMP    WIND        PRES    WAVE   SWELL
                          AIR SEA DIR/SP/G            HT/PER HT/PER
                          (F)     (DEG/KT/KT) (MB)    (FT/S) (FT/S)
28.5N   80.2W              82 85   10/  8/ 12 1017.2R   5/12   5/12
28.9N   78.5W                 85   40/ 10/ 14 1016.8R   4/11   5/11
TRIDENT PIER               83 83   20/  5/  9 1017.8R
28.4N   80.5W                 83                N/A     2/12   2/12
27.5N   80.2W                 83                N/A     3/13   2/13

$$
FLZ050-056-061-142-242-148-248-149-249-151-251-155-255-
160-260-211500-
WEST CENTRAL FLORIDA

CITY           SKY/WX    TMP DP  RH WIND       PRES   REMARKS
CRYSTAL RIVER  FAIR     N/A N/A N/A CALM      30.04R
BROOKSVILLE    SUNNY     81  72  74 NE5       30.04R
CLEARWATER AIR FAIR      81  70  69 E6        30.02R
ST PETE CLEARW PTSUNNY   83  73  72 NE7       30.01S
TAMPA INTL     MOSUNNY   83  72  69 E5        30.02S
TAMPA EXEC     SUNNY     84  72  65 E3        30.03R
PLANT CITY     SUNNY     82  73  74 NE5       30.04R
MACDILL AFB    SUNNY     81  79  92 E8        30.01S
ST PETERSBURG  CLOUDY    82  73  74 NE9       30.00R
SARASOTA       CLOUDY    80  73  79 E7        29.99R
VENICE         FAIR      81  73  78 NE9       30.00S

STATION/POSITION SKY/WX   TEMP    WIND        PRES    WAVE   SWELL
                          AIR SEA DIR/SP/G            HT/PER HT/PER
                          (F)     (DEG/KT/KT) (MB)    (FT/S) (FT/S)
27.3N   84.2W                 83                N/A     2/ 5
CLEARWATER BEACH           82 84   90/  4/  6 1016.6R
MIDDLE TAMPA BAY           79      70/  7/  9 1016.3R
VENICE                     78 83   60/  6/  8 1015.7R

$$
FLZ066-069-070-075>078-162-262-165-265-211500-
SOUTHWEST FLORIDA AND KEYS

CITY           SKY/WX    TMP DP  RH WIND       PRES   REMARKS
PUNTA GORDA    MOSUNNY   82  74  76 E9        30.01R
FT MYERS       SUNNY     83  76  79 E7        29.99R
SOUTHWEST INTL MOSUNNY   82  74  76 NE9       29.99R
NAPLES         SUNNY     83  76  79 E7        29.98R
IMMOKALEE      FAIR      82  77  83 NE8       30.00R
MARATHON       SUNNY     87  71  58 NE7       29.96R
KEY WEST NAS   SUNNY     89  76  65 E6        29.96R HX 100
KEY WEST INTL  SUNNY     87  73  62 E5        29.97R

STATION/POSITION SKY/WX   TEMP    WIND        PRES    WAVE   SWELL
                          AIR SEA DIR/SP/G            HT/PER HT/PER
                          (F)     (DEG/KT/KT) (MB)    (FT/S) (FT/S)
NAPLES           NOT AVBL
DRY TORTUGAS               85      70/  6/  6 1015.2R
SAND KEY                   83                 1015.3R

$$
FLZ067-068-071>074-168-172>174-211500-
SOUTHEAST FLORIDA

CITY           SKY/WX    TMP DP  RH WIND       PRES   REMARKS
W PALM BEACH   MOSUNNY   84  74  71 NE3       29.98R
BOCA RATON     MOSUNNY  N/A N/A N/A N3        29.97R
FT LAUDER-EXEC MOSUNNY   86  76  71 NW6       29.97R HX  96
FT LAUDERDALE  MOSUNNY   86  78  77 NW3       29.96R HX  98
POMPANO BEACH  MOSUNNY   85  76  74 N5        29.97R
PEMBROKE PINES MOSUNNY   87  76  69 N7        29.98R HX  97
OPA LOCKA      SUNNY     87  80  79 N6        29.98R HX 103
MIAMI          MOSUNNY   88  74  63 N3        29.97R HX  96
WEST KENDALL   PTSUNNY   87  75  67 N3        29.97R HX  96
HOMESTEAD      MOSUNNY   84  77  79 N6        29.97R

STATION/POSITION SKY/WX   TEMP    WIND        PRES    WAVE   SWELL
                          AIR SEA DIR/SP/G            HT/PER HT/PER
                          (F)     (DEG/KT/KT) (MB)    (FT/S) (FT/S)
PORT EVERGLADES            84      50/  6/  7 1014.9R
VIRGINIA KEY               85 86  310/  4/  6 1014.4R
LAKE WORTH                         10/  5/  6   N/A
FOWEY ROCKS                84 85  360/  3/  4 1015.5R
SETTLEMENT POINT           85     350/  2/  2 1015.2R

$$




USA.gov is the U.S. government's official web portal to all federal, state and local government web resources and services.